Track YAOGAN 30 now! 10-day predictions YAOGAN 30 is classified as:
1 41473U 16029A 21105.39523164 .00000087 00000-0 19688-4 0 9990 2 41473 97.8154 154.8585 0015630 198.5090 161.5560 14.76334671264994